| time (UTC) | temp C | wind direction | speed KPH | gust KPH | rain 1hr cm | rain 24hr cm | rain mn cm | humidity % | barometer mb |
| 20260906103047 | 21 | 85 | 1.6 | 6.4 | 0.00 | 0.00 | 0.00 | 87 | 1016.5 |
| 20260906101546 | 21 | 133 | 0.0 | 6.4 | 0.00 | 0.00 | 0.00 | 87 | 1016.2 |
| 20260906100043 | 22 | 90 | 1.6 | 6.4 | 0.00 | 0.00 | 0.00 | 86 | 1016.1 |
| 20260906094542 | 22 | 90 | 0.0 | 1.6 | 0.00 | 0.00 | 0.00 | 87 | 1016.3 |
| 20260906093049 | 22 | 87 | 0.0 | 4.8 | 0.00 | 0.00 | 0.00 | 87 | 1016.1 |
| 20260906091540 | 22 | 104 | 0.0 | 3.2 | 0.00 | 0.00 | 0.00 | 87 | 1016.0 |
| 20260906090039 | 22 | 88 | 1.6 | 3.2 | 0.00 | 0.00 | 0.00 | 87 | 1016.0 |
| 20260906084539 | 22 | 97 | 0.0 | 4.8 | 0.00 | 0.00 | 0.00 | 86 | 1015.9 |
| 20260906083037 | 22 | 102 | 0.0 | 3.2 | 0.00 | 0.00 | 0.00 | 87 | 1016.0 |
| 20260906081549 | 22 | 95 | 0.0 | 1.6 | 0.00 | 0.00 | 0.00 | 87 | 1016.1 |
| 20260906080036 | 22 | 92 | 0.0 | 1.6 | 0.00 | 0.00 | 0.00 | 88 | 1016.2 |
| 20260906074535 | 22 | 94 | 0.0 | 1.6 | 0.00 | 0.00 | 0.00 | 87 | 1016.2 |
| 20260906073047 | 22 | 96 | 0.0 | 3.2 | 0.00 | 0.00 | 0.00 | 87 | 1016.1 |
| 20260906071532 | 22 | 46 | 0.0 | 4.8 | 0.00 | 0.00 | 0.00 | 87 | 1016.0 |
| 20260906070038 | 22 | 95 | 0.0 | 8.0 | 0.00 | 0.00 | 0.00 | 87 | 1016.0 |
| 20260906064530 | 22 | 22 | 0.0 | 4.8 | 0.00 | 0.00 | 0.00 | 88 | 1016.2 |
| 20260906063030 | 22 | 82 | 0.0 | 4.8 | 0.00 | 0.00 | 0.00 | 88 | 1016.2 |
| 20260906061529 | 22 | 12 | 1.6 | 8.0 | 0.00 | 0.00 | 0.00 | 88 | 1016.2 |
| 20260906060027 | 22 | 36 | 0.0 | 4.8 | 0.00 | 0.00 | 0.00 | 88 | 1016.1 |
| 20260906054525 | 22 | 70 | 1.6 | 8.0 | 0.00 | 0.00 | 0.00 | 88 | 1015.8 |
| 20260906053033 | 22 | 87 | 1.6 | 14.5 | 0.00 | 0.00 | 0.00 | 88 | 1015.7 |
| 20260906051523 | 22 | 86 | 3.2 | 9.7 | 0.00 | 0.00 | 0.00 | 87 | 1015.5 |
| 20260906050021 | 22 | 20 | 1.6 | 16.1 | 0.00 | 0.00 | 0.00 | 87 | 1015.5 |
| 20260906044519 | 22 | 97 | 6.4 | 16.1 | 0.00 | 0.00 | 0.00 | 87 | 1015.2 |
| 20260906043024 | 22 | 102 | 4.8 | 11.3 | 0.00 | 0.00 | 0.00 | 88 | 1015.1 |
| 20260906041518 | 22 | 75 | 3.2 | 19.3 | 0.00 | 0.00 | 0.00 | 88 | 1015.2 |
| 20260906040017 | 22 | 85 | 1.6 | 11.3 | 0.00 | 0.00 | 0.00 | 88 | 1015.0 |
| 20260906034523 | 22 | 50 | 6.4 | 22.5 | 0.00 | 0.00 | 0.00 | 88 | 1015.0 |
| 20260906033015 | 23 | 74 | 4.8 | 22.5 | 0.00 | 0.00 | 0.00 | 87 | 1014.8 |
| 20260906031514 | 22 | 92 | 3.2 | 20.9 | 0.00 | 0.00 | 0.00 | 87 | 1014.8 |
| 20260906030013 | 23 | 49 | 3.2 | 17.7 | 0.00 | 0.00 | 0.00 | 87 | 1014.7 |
| 20260906024512 | 23 | 36 | 6.4 | 20.9 | 0.00 | 0.00 | 0.00 | 87 | 1015.0 |
| 20260906023012 | 23 | 46 | 8.0 | 19.3 | 0.00 | 0.00 | 0.00 | 87 | 1015.0 |
| 20260906021613 | 23 | 25 | 3.2 | 17.7 | 0.00 | 0.00 | 0.00 | 87 | 1015.1 |
| 20260906020010 | 23 | 7 | 9.7 | 22.5 | 0.00 | 0.00 | 0.00 | 86 | 1015.0 |
| 20260906014509 | 23 | 359 | 3.2 | 14.5 | 0.00 | 0.00 | 0.00 | 86 | 1015.0 |
| 20260906013007 | 23 | 47 | 8.0 | 16.1 | 0.00 | 0.00 | 0.00 | 86 | 1014.7 |
| 20260906011505 | 22 | 336 | 3.2 | 20.9 | 0.00 | 0.00 | 0.00 | 85 | 1014.7 |
| 20260906010004 | 22 | 21 | 8.0 | 16.1 | 0.00 | 0.00 | 0.00 | 86 | 1014.4 |
| 20260906004503 | 22 | 49 | 9.7 | 19.3 | 0.00 | 0.00 | 0.00 | 85 | 1014.2 |
| 20260906003002 | 22 | 76 | 12.9 | 20.9 | 0.00 | 0.00 | 0.00 | 85 | 1014.2 |
| 20260906001559 | 22 | 27 | 11.3 | 24.1 | 0.00 | 0.00 | 0.00 | 85 | 1014.3 |
| 20260906000107 | 23 | 13 | 6.4 | 17.7 | 0.00 | 0.00 | 0.00 | 84 | 1014.2 |
| 20260905234557 | 23 | 19 | 9.7 | 22.5 | 0.00 | 0.00 | 0.00 | 84 | 1014.2 |
| 20260905233054 | 23 | 64 | 4.8 | 20.9 | 0.00 | 0.00 | 0.00 | 85 | 1014.0 |
| 20260905231548 | 23 | 2 | 6.4 | 29.0 | 0.00 | 0.00 | 0.00 | 84 | 1014.0 |
| 20260905230048 | 24 | 357 | 9.7 | 24.1 | 0.00 | 0.00 | 0.00 | 82 | 1013.7 |
| 20260905224552 | 25 | 297 | 9.7 | 22.5 | 0.00 | 0.00 | 0.00 | 81 | 1013.7 |
| 20260905223042 | 24 | 345 | 6.4 | 20.9 | 0.00 | 0.00 | 0.00 | 82 | 1013.7 |
| 20260905221543 | 25 | 6 | 8.0 | 20.9 | 0.00 | 0.00 | 0.00 | 82 | 1013.7 |
| 20260905220040 | 24 | 26 | 3.2 | 16.1 | 0.00 | 0.00 | 0.00 | 83 | 1013.8 |
| 20260905214539 | 24 | 324 | 8.0 | 24.1 | 0.00 | 0.00 | 0.00 | 83 | 1013.7 |
| 20260905213037 | 25 | 309 | 8.0 | 25.7 | 0.00 | 0.00 | 0.00 | 83 | 1013.6 |
| 20260905211536 | 25 | 356 | 9.7 | 20.9 | 0.00 | 0.00 | 0.00 | 82 | 1013.5 |
| 20260905210034 | 25 | 32 | 11.3 | 19.3 | 0.00 | 0.00 | 0.00 | 81 | 1013.6 |
| 20260905204533 | 25 | 359 | 11.3 | 20.9 | 0.00 | 0.00 | 0.00 | 80 | 1013.5 |
| 20260905203031 | 26 | 13 | 6.4 | 24.1 | 0.00 | 0.00 | 0.00 | 80 | 1013.6 |
| 20260905201534 | 26 | 340 | 11.3 | 22.5 | 0.00 | 0.00 | 0.00 | 78 | 1013.6 |
| 20260905200044 | 26 | 334 | 8.0 | 24.1 | 0.00 | 0.00 | 0.00 | 79 | 1013.5 |
| 20260905194528 | 26 | 31 | 11.3 | 20.9 | 0.00 | 0.00 | 0.00 | 79 | 1013.6 |
| 20260905193029 | 27 | 333 | 6.4 | 22.5 | 0.00 | 0.00 | 0.00 | 77 | 1013.7 |
| 20260905191534 | 26 | 27 | 9.7 | 22.5 | 0.00 | 0.00 | 0.00 | 78 | 1013.9 |
| 20260905190042 | 27 | 304 | 9.7 | 20.9 | 0.00 | 0.00 | 0.00 | 77 | 1013.7 |
| 20260905184524 | 27 | 32 | 9.7 | 20.9 | 0.00 | 0.00 | 0.00 | 77 | 1013.8 |
| 20260905183023 | 27 | 314 | 6.4 | 20.9 | 0.00 | 0.00 | 0.00 | 78 | 1013.6 |
| 20260905181526 | 27 | 355 | 8.0 | 20.9 | 0.00 | 0.00 | 0.00 | 78 | 1013.5 |
| 20260905180022 | 27 | 352 | 8.0 | 20.9 | 0.00 | 0.00 | 0.00 | 76 | 1013.6 |
| 20260905174520 | 27 | 354 | 11.3 | 19.3 | 0.00 | 0.00 | 0.00 | 76 | 1013.6 |
| 20260905173021 | 28 | 46 | 6.4 | 19.3 | 0.00 | 0.00 | 0.00 | 75 | 1013.5 |
| 20260905171519 | 28 | 24 | 9.7 | 20.9 | 0.00 | 0.00 | 0.00 | 74 | 1013.5 |
| 20260905170019 | 28 | 4 | 8.0 | 16.1 | 0.00 | 0.00 | 0.00 | 74 | 1013.6 |
| 20260905164524 | 28 | 40 | 6.4 | 16.1 | 0.00 | 0.00 | 0.00 | 76 | 1013.6 |
| 20260905163016 | 28 | 349 | 1.6 | 17.7 | 0.00 | 0.00 | 0.00 | 76 | 1013.6 |
| 20260905161515 | 28 | 18 | 4.8 | 16.1 | 0.00 | 0.00 | 0.00 | 77 | 1013.6 |
| 20260905160012 | 27 | 324 | 8.0 | 12.9 | 0.00 | 0.00 | 0.00 | 79 | 1013.5 |
| 20260905154508 | 27 | 84 | 6.4 | 17.7 | 0.00 | 0.00 | 0.00 | 82 | 1013.3 |
| 20260905153007 | 27 | 1 | 8.0 | 14.5 | 0.00 | 0.00 | 0.00 | 83 | 1013.3 |
| 20260905151507 | 26 | 111 | 6.4 | 22.5 | 0.00 | 0.00 | 0.00 | 83 | 1013.3 |
| 20260905150005 | 26 | 9 | 8.0 | 17.7 | 0.00 | 0.00 | 0.00 | 83 | 1013.3 |
| 20260905144502 | 26 | 354 | 4.8 | 16.1 | 0.00 | 0.00 | 0.00 | 83 | 1013.2 |
| 20260905143058 | 26 | 19 | 6.4 | 19.3 | 0.00 | 0.00 | 0.00 | 83 | 1012.8 |
| 20260905141656 | 26 | 320 | 6.4 | 14.5 | 0.00 | 0.00 | 0.00 | 84 | 1012.8 |
| 20260905140105 | 26 | 20 | 6.4 | 14.5 | 0.00 | 0.00 | 0.00 | 85 | 1012.9 |
| 20260905134555 | 26 | 345 | 0.0 | 9.7 | 0.00 | 0.00 | 0.00 | 86 | 1013.0 |
| 20260905133053 | 26 | 4 | 4.8 | 12.9 | 0.00 | 0.00 | 0.00 | 85 | 1012.8 |
| 20260905131604 | 25 | 13 | 1.6 | 9.7 | 0.00 | 0.00 | 0.00 | 87 | 1012.6 |
| 20260905130052 | 25 | 310 | 1.6 | 9.7 | 0.00 | 0.00 | 0.00 | 88 | 1012.5 |
| 20260905124548 | 25 | 8 | 3.2 | 8.0 | 0.00 | 0.00 | 0.00 | 88 | 1012.3 |
| 20260905123046 | 25 | 21 | 3.2 | 9.7 | 0.00 | 0.00 | 0.00 | 89 | 1012.3 |
| 20260905121550 | 25 | 352 | 0.0 | 4.8 | 0.00 | 0.00 | 0.00 | 89 | 1012.0 |
| 20260905120044 | 25 | 26 | 1.6 | 4.8 | 0.00 | 0.00 | 0.00 | 88 | 1011.7 |
| 20260905114542 | 24 | 351 | 0.0 | 3.2 | 0.00 | 0.00 | 0.00 | 90 | 1011.4 |
| 20260905113041 | 24 | 13 | 0.0 | 0.0 | 0.00 | 0.00 | 0.00 | 90 | 1011.5 |
| 20260905111601 | 24 | 13 | 0.0 | 0.0 | 0.00 | 0.00 | 0.00 | 90 | 1011.2 |
| 20260905110039 | 24 | 13 | 0.0 | 1.6 | 0.00 | 0.00 | 0.00 | 90 | 1011.1 |
| 20260905104537 | 25 | 13 | 0.0 | 1.6 | 0.00 | 0.00 | 0.00 | 89 | 1011.1 |